Weather History for Iowa City, IA

Change the Weather History Date:

Wednesday, February 19, 2014

  Actual Average Record
Temperature  
Mean Temperature 33 °F 27 °F  
Max Temperature 41 °F 35 °F 61 °F (1981)
Min Temperature 24 °F 19 °F -8 °F (1978)
Degree Days  
Heating Degree Days 32 38  
Month to date heating degree days 1011 762  
Since 1 July heating degree days 5371 4629  
Cooling Degree Days 0 0  
Month to date cooling degree days 0 0  
Year to date cooling degree days 0 0  
Moisture  
Dew Point 28 °F    
Average Humidity 78    
Maximum Humidity 92    
Minimum Humidity 64    
Precipitation  
Precipitation 0.01 in 0.05 in 0.66 in (1955)
Month to date precipitation 0.72 0.79  
Year to date precipitation 1.07 1.71  
Sea Level Pressure  
Sea Level Pressure 29.92 in    
Wind  
Wind Speed 8 mph (SSW)    
Max Wind Speed 16 mph    
Max Gust Speed 21 mph    
Visibility 10 miles    
Events Rain    
T = Trace of Precipitation, MM = Missing Value Source: NWS Daily Summary

Daily Weather History Graph

Daily Weather History Graph

Search for Another Location

Airport:

Trip Planner

Search our weather history database for the weather conditions in past years. The results will help you decide how hot, cold, wet, or windy it might be!

Date:

Astronomy

Feb. 19, 2014 Rise Set
Actual Time 6:55 AM CST 5:44 PM CST
Civil Twilight 6:27 AM CST 6:12 PM CST
Nautical Twilight 5:55 AM CST 6:45 PM CST
Astronomical Twilight 5:23 AM CST 7:17 PM CST
Moon 10:42 PM CST (2/19) 8:57 AM CST (2/19)
Length of Visible Light 11h 45m
Length of Day
10h 48m
Waning Gibbous, 79% of the Moon is Illuminated
Feb 19
Waning Gibbous
Feb 22
Last Quarter
Mar 1
New
Mar 8
First Quarter
Mar 16
Full

Hourly Weather History & Observations

Time (CST) Temp. Windchill Dew Point Humidity Pressure Visibility Wind Dir Wind Speed Gust Speed Precip Events Conditions
12:52 AM 37.0 °F 28.9 °F 30.9 °F 79% 29.82 in 10.0 mi NW 12.7 mph 19.6 mph N/A   Clear
1:52 AM 33.1 °F 24.4 °F 28.9 °F 85% 29.84 in 10.0 mi West 11.5 mph - N/A   Clear
2:52 AM 33.1 °F 24.4 °F 28.9 °F 85% 29.86 in 10.0 mi WNW 11.5 mph - N/A   Clear
3:52 AM 35.1 °F 26.4 °F 28.0 °F 76% 29.87 in 10.0 mi NW 12.7 mph - N/A   Clear
4:52 AM 33.1 °F 25.5 °F 28.0 °F 82% 29.89 in 10.0 mi WNW 9.2 mph - N/A   Clear
5:52 AM 27.0 °F 18.0 °F 24.1 °F 89% 29.94 in 10.0 mi West 9.2 mph - N/A   Clear
6:52 AM 26.1 °F 19.4 °F 23.0 °F 88% 29.94 in 10.0 mi West 5.8 mph - N/A   Clear
7:52 AM 25.0 °F - 23.0 °F 92% 29.95 in 10.0 mi Calm Calm - N/A   Clear
8:52 AM 28.0 °F 22.8 °F 25.0 °F 88% 29.98 in 10.0 mi WSW 4.6 mph - N/A   Clear
9:52 AM 30.0 °F 25.2 °F 27.0 °F 88% 29.99 in 10.0 mi WSW 4.6 mph - N/A   Clear
10:52 AM 33.1 °F 26.1 °F 28.0 °F 82% 29.99 in 10.0 mi West 8.1 mph - N/A   Clear
11:52 AM 36.0 °F 32.1 °F 28.9 °F 76% 29.99 in 10.0 mi SW 4.6 mph - N/A   Clear
12:52 PM 37.0 °F 33.3 °F 28.9 °F 73% 29.99 in 10.0 mi SSW 4.6 mph - N/A   Clear
1:52 PM 39.0 °F 36.8 °F 28.9 °F 67% 29.97 in 10.0 mi South 3.5 mph - N/A   Clear
2:52 PM 39.9 °F 34.5 °F 30.0 °F 68% 29.96 in 10.0 mi South 8.1 mph - N/A   Clear
3:52 PM 39.9 °F 35.8 °F 30.0 °F 68% 29.95 in 10.0 mi ESE 5.8 mph - N/A   Clear
4:52 PM 37.9 °F 32.7 °F 30.0 °F 73% 29.93 in 10.0 mi SE 6.9 mph - N/A   Clear
5:52 PM 37.0 °F 31.6 °F 28.9 °F 73% 29.92 in 10.0 mi SE 6.9 mph - N/A   Clear
6:52 PM 37.0 °F 30.4 °F 28.9 °F 73% 29.91 in 10.0 mi ESE 9.2 mph - N/A   Clear
7:52 PM 36.0 °F 30.3 °F 30.0 °F 79% 29.89 in 10.0 mi ESE 6.9 mph - N/A   Partly Cloudy
8:52 PM 36.0 °F 29.6 °F 30.0 °F 79% 29.90 in 10.0 mi SE 8.1 mph - N/A   Mostly Cloudy
9:52 PM 36.0 °F 32.1 °F 28.9 °F 76% 29.89 in 10.0 mi SE 4.6 mph - N/A   Mostly Cloudy
10:52 PM 36.0 °F 28.5 °F 28.9 °F 76% 29.85 in 10.0 mi SE 10.4 mph - N/A   Overcast
11:52 PM 36.0 °F 28.5 °F 30.9 °F 82% 29.81 in 10.0 mi ESE 10.4 mph - 0.01 in Rain Light Rain